User: anonymous   Login
Location: Muenchen
(48.1800°N, 11.5800°E)
Time: 23:19:56
(UTC+01:00)
Language:

Tiros 1 - Orbit

View from above orbital plane
View from above orbital plane
View from above satellite
View from above satellite

Ground track
Ground track

The orbit data is extracted from the following two-line orbital elements,

1    29U 60002B   17326.53249291 -.00000046 +00000-0 +24202-4 0  9998
2    29 048.3808 054.4812 0024268 181.6501 178.4334 14.74211369080154
Epoch (UTC): 22 November 2017 12:46:47
Eccentricity: 0.0024268
inclination: 48.3808°
perigee height: 630 km
apogee height: 665 km
right ascension of ascending node: 54.4812°
argument of perigee: 181.6501°
revolutions per day: 14.74211369
mean anomaly at epoch: 178.4334°
orbit number at epoch: 8015

The dashed part of the orbit path shows where the satellite is in the earth's shadow,  

DLR